FENGYUN 1C DEB

Satellite information

Favourite Embed

Satellite Type and Status

DEBRISIN ORBIT

Key statistics

Satellite FENGYUN 1C DEB at a glance.

Uptime

9661

Days in orbit

Revolutions

≈ 14.3

Per day

Orbit

SSO

Sun Synchronous Orbit

Inclination

99.4

Latest

Satellite identification and parameters

Extended collection of information and parameters for FENGYUN 1C DEB.

Object identification

Identified? True

Debris? True

Object name: FENGYUN 1C DEB

International designator: 1999-025RV

Object number (NORAD): 30116

Object ID (CCSDS): 30116

Country: PEOPLES REPUBLIC OF CHINA (PRC)

Current information (Y/N): Y

RCS size: SMALL

Orbital parameters

Period: 100.79 minutes

Inclination: 99.402 deg

SMA: 7174.175 km

Apoapsis: 813.011 km

Periapsis: 779.069 km

RAAN: 0.8927 deg

Eccentricy: 0.00236555

Argument of periapsis: 135.189 deg

Mean anomaly: 312.5029 deg

Mean motion: 14.28712427 rev/day

Mean motion (dot): 0.00006303 rev/day2

B* drag term: 0.0025158364 1/REarth

Two-line elements (TLE)

Creation date: Oct. 21, 2025, 3:26 a.m.

Reference frame: TEME

Reference center: EARTH

Epoch: Oct. 20, 2025, 10:31 p.m. UTC

TLE line 0: 0 FENGYUN 1C DEB

TLE line 1: 1 30116U 99025RV 25293.93884834 .00006303 00000-0 25158-2 0 9999

TLE line 2: 2 30116 99.4020 0.8927 0023655 135.1890 312.5029 14.28712427967553

Live tracking on map

Real-time ground track for satellite FENGYUN 1C DEB.

In-orbit conjunctions

A list of the most updated potential collisions computed for object FENGYUN 1C DEB.

Target Orbit TCA Probability of collision Miss distance Type
SL-8 R/B LEO 2025-09-29 04:21:14 0.00441233 33.0 (m) ROCKET BODY
COSMOS 1867 COOLANT LEO 2025-05-31 18:59:36 0.0001684454 65.0 (m) DEBRIS
FENGYUN 1C DEB SSO 2024-09-24 18:07:21 0.0002075971 759.0 (m) DEBRIS

Associated space launch

Chinese polar orbiting meteorological satellite

FENGYUN 1C DEB was lifted into orbit during the mission ‘Long March 4B | Feng Yun 1C’, on board a Long March 4B space rocket.

The launch took place on May 10, 1999, 1:33 a.m. from Launch Complex 7.

For more information about the launch, click the button.

Launch to space Long March 4B | Feng Yun 1C
Long March 4B | Feng Yun 1C

Agency: N/A

Status: Launch Successful

Launch date: May 10, 1999, 1:33 a.m. UTC

Rocket: Long March 4B

Launch pad: Launch Complex 7

Location: Taiyuan Satellite Launch Center, People's Republic of China

...

Latest news about this satellite

There are no fresh news available about this satellite. Check back as we update our databases every day.


Newsletter sign-up

Weekly statistics, charts and insights to help you stay on top of the space industry.